TimeCST,TemperatureF,Dew PointF,Humidity,Sea Level PressureIn,VisibilityMPH,Wind Direction,Wind SpeedMPH,Gust SpeedMPH,PrecipitationIn,Events,Conditions,WindDirDegrees,DateUTC
12:15 AM,-13.0,-20.2,70,30.38,10.0,ESE,9.2,-,N/A,,Clear,110,2013-02-20 06:15:00
12:35 AM,-13.0,-20.2,70,30.37,10.0,ESE,10.4,-,N/A,,Clear,110,2013-02-20 06:35:00
12:55 AM,-13.0,-20.2,70,30.36,10.0,ESE,12.7,-,N/A,,Clear,110,2013-02-20 06:55:00
1:15 AM,-11.2,-20.2,64,30.37,10.0,ESE,10.4,-,N/A,,Clear,120,2013-02-20 07:15:00
1:35 AM,-13.0,-18.4,77,30.36,10.0,ESE,10.4,-,N/A,,Clear,120,2013-02-20 07:35:00
1:55 AM,-13.0,-18.4,77,30.36,10.0,SE,9.2,-,N/A,,Clear,130,2013-02-20 07:55:00
2:15 AM,-13.0,-20.2,70,30.36,10.0,SE,8.1,-,N/A,,Clear,130,2013-02-20 08:15:00
2:35 AM,-13.0,-20.2,70,30.36,10.0,ESE,9.2,-,N/A,,Clear,120,2013-02-20 08:35:00
2:55 AM,-13.0,-20.2,70,30.36,10.0,ESE,12.7,-,N/A,,Clear,110,2013-02-20 08:55:00
3:15 AM,-13.0,-20.2,70,30.35,10.0,SE,9.2,-,N/A,,Clear,130,2013-02-20 09:15:00
3:35 AM,-13.0,-20.2,70,30.35,10.0,SE,9.2,-,N/A,,Clear,130,2013-02-20 09:35:00
3:55 AM,-13.0,-20.2,70,30.34,10.0,ESE,10.4,-,N/A,,Clear,120,2013-02-20 09:55:00
4:15 AM,-14.8,-20.2,77,30.34,10.0,ESE,9.2,-,N/A,,Clear,120,2013-02-20 10:15:00
4:35 AM,-14.8,-20.2,77,30.33,10.0,ESE,9.2,-,N/A,,Clear,120,2013-02-20 10:35:00
4:55 AM,-14.8,-20.2,77,30.33,10.0,SE,8.1,-,N/A,,Clear,130,2013-02-20 10:55:00
5:15 AM,-14.8,-20.2,77,30.31,10.0,ESE,13.8,-,N/A,,Clear,110,2013-02-20 11:15:00
5:35 AM,-14.8,-20.2,77,30.32,10.0,SE,9.2,-,N/A,,Clear,140,2013-02-20 11:35:00
5:55 AM,-16.6,-22.0,76,30.33,10.0,ESE,11.5,-,N/A,,Clear,110,2013-02-20 11:55:00
6:15 AM,-16.6,-22.0,76,30.32,10.0,ESE,4.6,-,N/A,,Clear,120,2013-02-20 12:15:00
6:35 AM,-16.6,-22.0,76,30.33,10.0,ESE,4.6,-,N/A,,Clear,110,2013-02-20 12:35:00
6:55 AM,-18.4,-22.0,84,30.33,10.0,ESE,8.1,-,N/A,,Clear,110,2013-02-20 12:55:00
7:15 AM,-16.6,-22.0,76,30.32,10.0,ESE,12.7,-,N/A,,Clear,120,2013-02-20 13:15:00
7:35 AM,-16.6,-22.0,76,30.31,10.0,ESE,10.4,-,N/A,,Clear,120,2013-02-20 13:35:00
7:55 AM,-16.6,-22.0,76,30.31,10.0,ESE,12.7,-,N/A,,Clear,120,2013-02-20 13:55:00
8:15 AM,-14.8,-20.2,77,30.31,10.0,ESE,13.8,-,N/A,,Clear,120,2013-02-20 14:15:00
8:35 AM,-13.0,-20.2,70,30.29,10.0,ESE,15.0,-,N/A,,Clear,120,2013-02-20 14:35:00
8:55 AM,-13.0,-18.4,77,30.29,10.0,SE,16.1,-,N/A,,Clear,130,2013-02-20 14:55:00
9:15 AM,-11.2,-18.4,70,30.29,10.0,SE,13.8,-,N/A,,Clear,130,2013-02-20 15:15:00
9:35 AM,-11.2,-16.6,77,30.29,10.0,SE,16.1,-,N/A,,Clear,130,2013-02-20 15:35:00
9:55 AM,-9.4,-16.6,71,30.30,10.0,SE,11.5,19.6,N/A,,Clear,140,2013-02-20 15:55:00
10:15 AM,-7.6,-14.8,71,30.30,10.0,SE,11.5,-,N/A,,Scattered Clouds,140,2013-02-20 16:15:00
10:35 AM,-7.6,-13.0,77,30.30,10.0,SE,12.7,16.1,N/A,,Mostly Cloudy,140,2013-02-20 16:35:00
10:55 AM,-5.8,-11.2,77,30.30,10.0,SE,11.5,-,N/A,,Overcast,130,2013-02-20 16:55:00
11:15 AM,-4.0,-11.2,71,30.30,10.0,SE,9.2,-,N/A,,Overcast,140,2013-02-20 17:15:00
11:35 AM,-4.0,-9.4,78,30.30,10.0,SE,10.4,-,N/A,,Overcast,140,2013-02-20 17:35:00
11:55 AM,-2.2,-9.4,71,30.29,10.0,SE,10.4,-,N/A,,Overcast,130,2013-02-20 17:55:00
12:15 PM,-0.4,-7.6,72,30.28,10.0,SE,11.5,-,N/A,,Overcast,130,2013-02-20 18:15:00
12:35 PM,-0.4,-5.8,78,30.27,10.0,SE,13.8,-,N/A,,Overcast,130,2013-02-20 18:35:00
12:55 PM,-0.4,-5.8,78,30.26,10.0,ESE,16.1,-,N/A,,Overcast,120,2013-02-20 18:55:00
1:15 PM,-0.4,-4.0,85,30.25,10.0,SE,11.5,-,N/A,,Overcast,130,2013-02-20 19:15:00
1:35 PM,1.4,-4.0,78,30.25,10.0,SE,11.5,-,N/A,,Overcast,130,2013-02-20 19:35:00
1:55 PM,1.4,-4.0,78,30.24,10.0,SE,13.8,-,N/A,,Overcast,130,2013-02-20 19:55:00
2:15 PM,1.4,-4.0,78,30.23,10.0,ESE,17.3,-,N/A,,Overcast,120,2013-02-20 20:15:00
2:35 PM,1.4,-4.0,78,30.23,10.0,ESE,16.1,-,N/A,,Overcast,120,2013-02-20 20:35:00
2:55 PM,1.4,-2.2,85,30.22,10.0,ESE,17.3,-,N/A,,Overcast,120,2013-02-20 20:55:00
3:15 PM,1.4,-2.2,85,30.22,10.0,SE,15.0,19.6,N/A,,Overcast,130,2013-02-20 21:15:00
3:35 PM,3.2,-2.2,78,30.20,10.0,SE,18.4,24.2,N/A,,Overcast,130,2013-02-20 21:35:00
3:55 PM,3.2,-2.2,78,30.20,10.0,SE,17.3,-,N/A,,Overcast,130,2013-02-20 21:55:00
4:15 PM,5.0,-0.4,78,30.19,10.0,ESE,19.6,26.5,N/A,,Overcast,120,2013-02-20 22:15:00
4:35 PM,5.0,-0.4,78,30.18,10.0,ESE,24.2,28.8,N/A,,Scattered Clouds,120,2013-02-20 22:35:00
4:55 PM,3.2,-0.4,85,30.18,10.0,ESE,20.7,-,N/A,,Scattered Clouds,120,2013-02-20 22:55:00
5:15 PM,5.0,-0.4,78,30.19,10.0,ESE,18.4,25.3,N/A,,Overcast,120,2013-02-20 23:15:00
5:35 PM,5.0,-0.4,78,30.18,10.0,SE,18.4,25.3,N/A,,Overcast,130,2013-02-20 23:35:00
5:55 PM,5.0,-0.4,78,30.17,10.0,SE,20.7,26.5,N/A,,Overcast,130,2013-02-20 23:55:00
6:15 PM,5.0,-0.4,78,30.16,10.0,SE,20.7,28.8,N/A,,Mostly Cloudy,130,2013-02-21 00:15:00
6:35 PM,5.0,-0.4,78,30.15,10.0,SE,23.0,31.1,N/A,,Mostly Cloudy,130,2013-02-21 00:35:00
6:55 PM,3.2,-0.4,85,30.15,8.0,SE,24.2,32.2,N/A,,Mostly Cloudy,130,2013-02-21 00:55:00
7:15 PM,5.0,-0.4,78,30.15,10.0,SE,24.2,28.8,N/A,,Mostly Cloudy,130,2013-02-21 01:15:00
7:35 PM,5.0,-0.4,78,30.14,10.0,SE,21.9,28.8,N/A,,Scattered Clouds,130,2013-02-21 01:35:00
7:55 PM,5.0,-0.4,78,30.15,10.0,SE,17.3,25.3,N/A,,Clear,130,2013-02-21 01:55:00
8:15 PM,5.0,-0.4,78,30.16,10.0,SE,18.4,23.0,N/A,,Mostly Cloudy,140,2013-02-21 02:15:00
8:35 PM,5.0,-0.4,78,30.17,10.0,SE,15.0,23.0,N/A,,Mostly Cloudy,140,2013-02-21 02:35:00
8:55 PM,5.0,-0.4,78,30.16,10.0,SE,18.4,23.0,N/A,,Mostly Cloudy,140,2013-02-21 02:55:00
9:15 PM,5.0,-0.4,78,30.17,10.0,SSE,13.8,25.3,N/A,,Overcast,150,2013-02-21 03:15:00
9:35 PM,5.0,-0.4,78,30.17,10.0,SE,17.3,23.0,N/A,,Overcast,140,2013-02-21 03:35:00
9:55 PM,5.0,-0.4,78,30.17,7.0,SSE,12.7,-,N/A,Snow,Light Snow,150,2013-02-21 03:55:00
10:15 PM,5.0,-0.4,78,30.17,3.0,SSE,15.0,-,N/A,Snow,Light Snow,150,2013-02-21 04:15:00
10:35 PM,5.0,-0.4,78,30.18,4.0,SSE,15.0,19.6,N/A,Snow,Light Snow,150,2013-02-21 04:35:00
10:55 PM,5.0,-0.4,78,30.18,5.0,SSE,12.7,20.7,N/A,,Haze,150,2013-02-21 04:55:00
11:15 PM,5.0,-0.4,78,30.18,3.0,SSE,12.7,17.3,N/A,Snow,Light Snow,150,2013-02-21 05:15:00
11:35 PM,6.8,1.4,79,30.19,4.0,SE,10.4,-,N/A,,Haze,140,2013-02-21 05:35:00
11:55 PM,6.8,1.4,79,30.18,3.0,SE,11.5,-,N/A,Snow,Light Snow,140,2013-02-21 05:55:00